Pontiac, MI

4:09 AM EST on January 23, 2018 (GMT -0500)
Oakland County International

Weather History for KPTK - November, 2011

Change the Weather History Date:

Tuesday, November 15, 2011

  Actual Average Record
Temperature  
Mean Temperature 47 °F -  
Max Temperature 55 °F 44 °F 66 °F (2001)
Min Temperature 39 °F 31 °F 19 °F (1996)
Degree Days  
Heating Degree Days 18    
Moisture  
Dew Point 42 °F    
Average Humidity 82    
Maximum Humidity 97    
Minimum Humidity 49    
Precipitation  
Precipitation 0.00 in - - ()
Sea Level Pressure  
Sea Level Pressure 29.78 in    
Wind  
Wind Speed 6 mph (SSW)    
Max Wind Speed 13 mph    
Max Gust Speed 20 mph    
Visibility 8 miles    
Events      
Averages and records for this station are not official NWS values.
T = Trace of Precipitation, MM = Missing Value Source: NWS Daily Summary

Daily Weather History Graph

Daily Weather History Graph

Search for Another Location

Airport or City:

Trip Planner

Search our weather history database for the weather conditions in past years. The results will help you decide how hot, cold, wet, or windy it might be!

Date:

Astronomy

Nov. 15, 2011 Rise Set
Actual Time 7:24 AM EST 5:11 PM EST
Civil Twilight 6:54 AM EST 5:41 PM EST
Nautical Twilight 6:20 AM EST 6:15 PM EST
Astronomical Twilight 5:47 AM EST 6:48 PM EST
Moon 9:18 PM EST (11/15) 11:24 AM EST (11/15)
Length of Visible Light 10h 46m
Length of Day
9h 46m
Waning Gibbous, 79% of the Moon is Illuminated
Nov 15
Waning Gibbous
Nov 18
Last Quarter
Nov 25
New
Dec 2
First Quarter
Dec 10
Full

Hourly Weather History & Observations

Time (EST) Temp. Windchill Dew Point Humidity Pressure Visibility Wind Dir Wind Speed Gust Speed Precip Events Conditions
12:53 AM 43.0 °F 40.3 °F 42.1 °F 97% 29.73 in 4.0 mi WSW 4.6 mph - N/A   Clear
1:53 AM 43.0 °F 40.3 °F 42.1 °F 97% 29.73 in 6.0 mi SW 4.6 mph - N/A   Clear
2:53 AM 43.0 °F 41.3 °F 41.0 °F 93% 29.74 in 7.0 mi SW 3.5 mph - N/A   Clear
3:53 AM 42.1 °F 39.2 °F 39.9 °F 92% 29.76 in 7.0 mi WSW 4.6 mph - N/A   Clear
4:53 AM 43.0 °F 39.5 °F 39.9 °F 89% 29.77 in 10.0 mi West 5.8 mph - N/A   Clear
5:53 AM 42.1 °F 39.2 °F 39.0 °F 89% 29.78 in 10.0 mi West 4.6 mph - N/A   Clear
6:10 AM 39.2 °F 35.9 °F 37.4 °F 93% 29.77 in 9.0 mi West 4.6 mph - N/A   Mostly Cloudy
6:53 AM 41.0 °F 39.0 °F 39.0 °F 93% 29.80 in 8.0 mi WNW 3.5 mph - N/A   Mostly Cloudy
7:53 AM 39.2 °F - 37.4 °F 93% 29.79 in 4.0 mi Calm Calm - N/A   Mostly Cloudy
8:53 AM 41.0 °F - 39.2 °F 93% 29.80 in 4.0 mi Calm Calm - N/A   Mostly Cloudy
9:53 AM 44.6 °F - 41.0 °F 87% 29.81 in 5.0 mi Calm Calm - N/A   Mostly Cloudy
10:53 AM 48.9 °F - 37.9 °F 66% 29.82 in 10.0 mi SE 8.1 mph - N/A   Scattered Clouds
11:53 AM 52.0 °F - 33.1 °F 49% 29.81 in 10.0 mi SE 10.4 mph - N/A   Partly Cloudy
12:53 PM 54.0 °F - 37.0 °F 53% 29.80 in 10.0 mi South 9.2 mph - N/A   Scattered Clouds
1:53 PM 54.0 °F - 39.9 °F 59% 29.77 in 10.0 mi South 10.4 mph - N/A   Scattered Clouds
2:53 PM 55.9 °F - 42.1 °F 60% 29.76 in 10.0 mi South 12.7 mph 19.6 mph N/A   Scattered Clouds
3:53 PM 55.0 °F - 45.0 °F 69% 29.76 in 10.0 mi SSW 9.2 mph - N/A   Scattered Clouds
4:53 PM 53.1 °F - 46.0 °F 77% 29.75 in 8.0 mi South 9.2 mph - N/A   Partly Cloudy
5:53 PM 52.0 °F - 46.9 °F 83% 29.77 in 8.0 mi South 8.1 mph - N/A   Scattered Clouds
6:03 PM 51.8 °F - 46.4 °F 82% 29.76 in 9.0 mi South 6.9 mph - N/A   Mostly Cloudy
6:53 PM 52.0 °F - 46.9 °F 83% 29.78 in 10.0 mi South 9.2 mph - N/A   Scattered Clouds
7:53 PM 51.1 °F - 46.0 °F 83% 29.79 in 10.0 mi SSW 10.4 mph - N/A   Scattered Clouds
8:53 PM 50.0 °F - 46.0 °F 86% 29.80 in 10.0 mi SSW 6.9 mph - N/A   Partly Cloudy
9:53 PM 48.9 °F - 45.0 °F 86% 29.80 in 10.0 mi SSW 8.1 mph - N/A   Clear
10:53 PM 48.0 °F - 45.0 °F 89% 29.79 in 10.0 mi SSW 4.6 mph - N/A   Clear
11:53 PM 48.0 °F - 44.1 °F 86% 29.79 in 10.0 mi SSW 6.9 mph - N/A   Partly Cloudy